User: anonymous   Login
Location: Unspecified
(52.4292°N, 19.3359°E)
Time: 17:01:43
(UTC+02:00)
Language:

Courier 1B Rocket - Orbit

View from above orbital plane
View from above orbital plane
View from above satellite
View from above satellite

Ground track
Ground track

The orbit data is extracted from the following two-line orbital elements,

1 00059U 60013B   24139.84507239  .00000224  00000-0  18390-3 0  9993
2 00059  28.2489  65.0936 0189016  60.9058 301.0275 13.53073304140249
Epoch (UTC): 18 May 2024 20:16:54
Eccentricity: 0.0189016
inclination: 28.2489°
perigee height: 920 km
apogee height: 1201 km
right ascension of ascending node: 65.0936°
argument of perigee: 60.9058°
revolutions per day: 13.53073304
mean anomaly at epoch: 301.0275°
orbit number at epoch: 14024

The dashed part of the orbit path shows where the satellite is in the earth's shadow,  

DLR